Location: Edmonton
(53.5500°N, 113.5000°W)
Time: 09:32:10
(UTC-07:00)

OTV 5 (USA 277) - Visible Passes

Search period start: 19 February 2019 00:00
Search period end: 01 March 2019 00:00
Orbit: 342 x 346 km, 54.5° (Epoch: 17 February)

Date Brightness Start Highest point End Pass type
(mag) Time Alt. Az. Time Alt. Az. Time Alt. Az.
24 Feb ? 19:38:31 10° S 19:39:16 13° SSE 19:39:16 13° SSE visible
25 Feb ? 20:01:04 10° SW 20:02:38 23° S 20:02:38 23° S visible
26 Feb ? 18:51:01 10° S 18:52:45 15° SE 18:54:24 10° ESE visible
26 Feb ? 20:24:21 10° WSW 20:25:51 27° SW 20:25:51 27° SW visible
27 Feb ? 19:13:32 10° SSW 19:16:07 30° SSE 19:17:32 19° E visible
27 Feb ? 20:47:57 10° W 20:48:59 20° W 20:48:59 20° W visible
28 Feb ? 19:36:48 10° WSW 19:39:39 59° SSE 19:40:35 36° E visible
28 Feb ? 21:11:41 10° W 21:12:01 13° W 21:12:01 13° W visible
